Location: Cluny
(50.9333°N, 112.8167°W)
Time: 09:58:47
(UTC-06:00)

Amateur Radio Satellites - All Passes

Search period start: 25 July 2016 09:28
Search period end: 26 July 2016 09:28
Location: Cluny, 50.9333°N, 112.8167°W

Satellite Date Start Highest point End Downlink Frequencies (MHz)
Time Altitude Azimuth
UNISAT 6 25 Jul 09:34:18 09:37:46 21° 59° (ENE) 09:41:17 437.425
Cosmos 2504 25 Jul 09:43:30 09:45:30 11° 65° (ENE) 09:47:30 435.465 / 435.565
CANX-2 25 Jul 09:43:48 09:48:05 88° 105° (ESE) 09:52:17 2200.000
Oscar 11 25 Jul 09:45:34 09:48:24 17° 89° (E) 09:51:11 145.826/435.025
AAUSAT CUBESAT 2 25 Jul 09:52:03 09:55:59 40° 98° (E) 09:59:51 437.432
CUTE 1.7 + AOD 2 25 Jul 09:57:43 10:01:58 78° 286° (WNW) 10:06:10 437.475
Cubesat XI-IV 25 Jul 09:57:57 10:01:33 19° 307° (NW) 10:05:08 437.490
ANTELSAT 25 Jul 10:11:44 10:16:05 41° 67° (ENE) 10:20:30 437.575/2403.000
SO-50 25 Jul 10:17:31 10:22:24 79° 129° (SE) 10:27:14 436.795
YUBILEINY 25 Jul 10:20:21 10:28:41 50° 88° (E) 10:37:05 435.215
CUTE-I 25 Jul 10:23:16 10:25:35 13° 312° (NW) 10:27:53 437.470
QB50P2 25 Jul 10:26:26 10:28:25 13° 55° (NE) 10:30:25 145.880/145.840
POLYITAN 1 25 Jul 10:29:00 10:31:04 13° 55° (NE) 10:33:07 437.675
UWE-3 25 Jul 10:29:05 10:33:44 62° 101° (E) 10:38:16 435.000/436.395/437.385
AUBIESAT-1 25 Jul 10:29:47 10:31:39 12° 92° (E) 10:33:31 437.475
DELFI C3 25 Jul 10:33:35 10:36:39 21° 92° (E) 10:39:42 145.870
HUMSAT D 25 Jul 10:34:13 10:35:55 12° 86° (E) 10:37:36 437.325/437.525
ZACube-1 25 Jul 10:34:43 10:39:09 47° 98° (E) 10:43:27 437.345
HO-68 25 Jul 10:34:53 10:42:01 66° 294° (WNW) 10:49:06 435.675
FUNcube-1 25 Jul 10:35:02 10:39:25 45° 98° (E) 10:43:41 145.935
DOVE 4 25 Jul 10:35:29 10:38:32 16° 304° (NW) 10:41:39 437.250
SEEDS 25 Jul 10:41:11 10:45:07 39° 292° (WNW) 10:49:00 437.485
NOAA 18 25 Jul 10:41:27 10:43:08 11° 316° (NW) 10:44:48 137.9125
Cosmos 2491 25 Jul 10:41:45 10:50:09 55° 270° (W) 10:58:35 435.465 / 435.565
PRISM 25 Jul 10:45:54 10:47:14 11° 273° (W) 10:48:33 437.425
CUBEBUG 2 25 Jul 10:46:36 10:51:22 69° 287° (WNW) 10:56:00 437.445
TIGRISAT 25 Jul 10:53:42 10:58:21 89° 75° (ENE) 11:03:06 435.000
COMPASS 1 25 Jul 10:57:05 11:00:56 38° 292° (WNW) 11:04:45 437.405
JAS-2 25 Jul 10:58:28 11:01:17 14° 51° (NE) 11:04:00 435.910
CINEMA 3 25 Jul 11:02:17 11:06:11 23° 300° (WNW) 11:10:05 145.822/145.860
RS-15 25 Jul 11:07:32 11:19:02 52° 335° (NNW) 11:31:02 29.354- 29.394
UNISAT 6 25 Jul 11:09:27 11:14:04 64° 259° (W) 11:18:46 437.425
NANOSAT C BR1 25 Jul 11:12:16 11:15:53 28° 64° (ENE) 11:19:33 145.865
DUCHIFAT 1 25 Jul 11:17:32 11:21:13 30° 65° (ENE) 11:24:56 145.980
Oscar 11 25 Jul 11:20:40 11:24:58 63° 288° (WNW) 11:29:13 145.826/435.025
CANX-2 25 Jul 11:21:10 11:23:19 14° 304° (WNW) 11:25:28 2200.000
AAUSAT CUBESAT 2 25 Jul 11:27:55 11:31:17 24° 297° (WNW) 11:34:38 437.432
Cosmos 2504 25 Jul 11:28:18 11:36:38 48° 87° (E) 11:44:55 435.465 / 435.565
QB50P1 25 Jul 11:32:54 11:36:57 45° 69° (ENE) 11:41:02 145.935-145.965
M-CUBED/EXP-1 PRIME 25 Jul 11:34:10 11:38:43 53° 106° (ESE) 11:43:20 437.505
CUTE 1.7 + AOD 2 25 Jul 11:35:32 11:37:05 12° 305° (NW) 11:38:37 437.475
POPSAT HIP 1 25 Jul 11:39:03 11:43:10 50° 70° (ENE) 11:47:20 437.405
BUGSAT 1 25 Jul 11:41:18 11:44:39 25° 63° (ENE) 11:48:03 437.445
ANTELSAT 25 Jul 11:48:50 11:52:54 29° 266° (W) 11:57:02 437.575/2403.000
SO-50 25 Jul 11:59:09 12:03:23 29° 330° (NNW) 12:07:35 436.795
QB50P2 25 Jul 11:59:17 12:03:33 84° 72° (ENE) 12:07:52 145.880/145.840
POLYITAN 1 25 Jul 12:01:55 12:06:11 85° 78° (ENE) 12:10:32 437.675
AUBIESAT-1 25 Jul 12:02:08 12:06:46 79° 110° (ESE) 12:11:25 437.475
UWE-3 25 Jul 12:06:18 12:09:47 21° 300° (WNW) 12:13:14 435.000/436.395/437.385
HUMSAT D 25 Jul 12:07:54 12:12:10 84° 288° (WNW) 12:16:20 437.325/437.525
DELFI C3 25 Jul 12:07:58 12:11:42 41° 291° (WNW) 12:15:24 145.870
ESTCUBE 1 25 Jul 12:11:14 12:14:48 23° 92° (E) 12:18:19 437.505/2401.250
ZACube-1 25 Jul 12:11:27 12:15:11 25° 298° (WNW) 12:18:50 437.345
FUNcube-1 25 Jul 12:11:40 12:15:27 26° 297° (WNW) 12:19:08 145.935
Oscar 19 25 Jul 12:17:00 12:20:12 17° 53° (NE) 12:23:25 437.125/150
YUBILEINY 25 Jul 12:17:11 12:25:35 48° 291° (WNW) 12:34:07 435.215
AO-7 25 Jul 12:20:57 12:23:45 12° 20° (NNE) 12:26:33 29.400- 29.500
HO-68 25 Jul 12:23:45 12:28:31 19° 316° (NW) 12:33:16 435.675
CUBEBUG 2 25 Jul 12:25:04 12:27:06 13° 307° (NW) 12:29:08 437.445
50 SAT 25 Jul 12:30:28 12:33:03 18° 92° (E) 12:35:37 437.505
TIGRISAT 25 Jul 12:33:26 12:35:44 13° 274° (W) 12:38:04 435.000
VELOX 1 25 Jul 12:36:43 12:40:20 24° 93° (E) 12:43:55 145.980
JAS-2 25 Jul 12:39:39 12:45:35 67° 70° (ENE) 12:50:57 435.910
Cosmos 2491 25 Jul 12:41:42 12:44:52 12° 294° (WNW) 12:48:03 435.465 / 435.565
CUBEBUG 1 25 Jul 12:43:13 12:47:08 31° 95° (E) 12:51:03 437.445
NANOSAT C BR1 25 Jul 12:47:35 12:51:31 37° 263° (W) 12:55:31 145.865
SPROUT 25 Jul 12:47:57 12:50:38 16° 89° (E) 12:53:20 437.525
DUCHIFAT 1 25 Jul 12:52:58 12:56:50 35° 263° (W) 13:00:46 145.980
Oscar 11 25 Jul 12:59:34 13:00:15 10° 307° (NW) 13:00:55 145.826/435.025
M-CUBED/EXP-1 PRIME 25 Jul 13:09:07 13:12:59 27° 304° (NW) 13:16:54 437.505
QB50P1 25 Jul 13:09:33 13:12:56 23° 267° (W) 13:16:22 145.935-145.965
BUGSAT 1 25 Jul 13:15:59 13:19:51 41° 262° (W) 13:23:49 437.445
POPSAT HIP 1 25 Jul 13:16:03 13:19:15 20° 269° (W) 13:22:28 437.405
Gurwin Techsat 1B 25 Jul 13:19:24 13:23:43 26° 59° (ENE) 13:28:05 435.225
AISAT 25 Jul 13:20:49 13:25:16 63° 102° (ESE) 13:29:41 437.250
Cosmos 2504 25 Jul 13:21:24 13:30:01 52° 290° (WNW) 13:38:35 435.465 / 435.565
RS-15 25 Jul 13:23:20 13:34:45 43° 8° (N) 13:46:24 29.354- 29.394
DX 1 25 Jul 13:27:51 13:32:08 52° 101° (E) 13:36:25 434.975-435.025
AIST 1 25 Jul 13:29:08 13:31:49 17° 84° (E) 13:34:30
AUBIESAT-1 25 Jul 13:37:29 13:40:44 19° 308° (NW) 13:44:01 437.475
QB50P2 25 Jul 13:38:07 13:39:59 13° 273° (W) 13:41:50 145.880/145.840
POLYITAN 1 25 Jul 13:40:50 13:42:37 12° 273° (W) 13:44:26 437.675
SO-50 25 Jul 13:42:21 13:45:21 16° 354° (N) 13:48:19 436.795
HUMSAT D 25 Jul 13:45:14 13:47:07 13° 305° (NW) 13:48:59 437.325/437.525
UKube-1 25 Jul 13:45:23 13:49:42 62° 102° (ESE) 13:53:59 .
ITAMSAT 1 25 Jul 13:46:36 13:50:03 18° 54° (NE) 13:53:30 435.822/435.867
ESTCUBE 1 25 Jul 13:47:31 13:51:52 49° 291° (WNW) 13:56:11 437.505/2401.250
TISAT 1 25 Jul 13:50:41 13:53:36 18° 90° (E) 13:56:29 437.305
Oscar 19 25 Jul 13:53:42 13:58:49 86° 75° (ENE) 14:04:00 437.125/150
50 SAT 25 Jul 14:03:28 14:06:53 40° 291° (WNW) 14:10:16 437.505
AO-7 25 Jul 14:07:00 14:13:51 29° 46° (NE) 14:20:42 29.400- 29.500
VELOX 1 25 Jul 14:12:46 14:17:01 46° 292° (WNW) 14:21:16 145.980
AO-85 25 Jul 14:14:09 14:17:10 15° 110° (ESE) 14:20:06 145.980
CUBEBUG 1 25 Jul 14:19:28 14:23:28 35° 294° (WNW) 14:27:28 437.445
YUBILEINY 25 Jul 14:20:55 14:25:15 14° 319° (NW) 14:29:37 435.215
SPROUT 25 Jul 14:22:45 14:27:04 67° 287° (WNW) 14:31:20 437.525
JAS-2 25 Jul 14:26:34 14:31:08 22° 268° (W) 14:35:23 435.910
SWISSCUBE 25 Jul 14:30:57 14:32:31 11° 85° (E) 14:34:05 437.505
GONETS M04 25 Jul 14:32:39 14:37:22 16° 70° (ENE) 14:42:06
Cosmos 2499 25 Jul 14:39:59 14:43:26 13° 68° (ENE) 14:46:50 435.465 / 435.565
BEESAT 25 Jul 14:51:24 14:54:25 16° 89° (E) 14:57:23 436.000
Gurwin Techsat 1B 25 Jul 14:58:05 15:03:20 61° 258° (WSW) 15:08:38 435.225
AISAT 25 Jul 14:58:08 15:01:21 20° 301° (WNW) 15:04:34 437.250
DX 1 25 Jul 15:04:39 15:08:03 22° 299° (WNW) 15:11:26 434.975-435.025
AIST 1 25 Jul 15:04:46 15:08:57 58° 283° (WNW) 15:13:12
ITUPSAT 1 25 Jul 15:12:35 15:16:30 24° 93° (E) 15:20:22 437.325
Cosmos 2504 25 Jul 15:20:55 15:25:53 16° 316° (NW) 15:30:50 435.465 / 435.565
UKube-1 25 Jul 15:22:17 15:25:21 19° 301° (WNW) 15:28:25 .
ITAMSAT 1 25 Jul 15:23:36 15:28:51 89° 78° (ENE) 15:34:07 435.822/435.867
SO-50 25 Jul 15:23:59 15:27:32 20° 19° (NNE) 15:31:00 436.795
TISAT 1 25 Jul 15:25:25 15:29:37 59° 289° (WNW) 15:33:48 437.305
Oscar 19 25 Jul 15:35:47 15:38:51 16° 273° (W) 15:41:56 437.125/150
RS-15 25 Jul 15:37:28 15:49:47 69° 39° (NE) 16:02:06 29.354- 29.394
CUSAT 1 25 Jul 15:37:28 15:40:12 85° 72° (ENE) 15:43:23 437.405
DANDE 25 Jul 15:42:42 15:44:53 22° 70° (ENE) 15:47:02 436.750
AO-85 25 Jul 15:51:39 15:56:59 76° 128° (SE) 16:02:01 145.980
HORYU 2 25 Jul 15:57:03 15:59:45 16° 56° (NE) 16:02:28 437.375
AO-7 25 Jul 15:57:19 16:05:43 88° 68° (ENE) 16:14:10 29.400- 29.500
SPROUT 25 Jul 16:01:04 16:02:12 11° 307° (NW) 16:03:20 437.525
SWISSCUBE 25 Jul 16:06:20 16:11:08 78° 104° (ESE) 16:15:53 437.505
GONETS M04 25 Jul 16:23:52 16:32:25 66° 93° (E) 16:41:02
Cosmos 2499 25 Jul 16:26:05 16:34:36 54° 90° (E) 16:42:54 435.465 / 435.565
BEESAT 25 Jul 16:27:59 16:32:46 76° 288° (WNW) 16:37:31 436.000
ITUPSAT 1 25 Jul 16:49:58 16:54:37 51° 292° (WNW) 16:59:13 437.325
CUTE-I 25 Jul 16:51:50 16:54:30 14° 49° (NE) 16:57:09 437.470
SO-50 25 Jul 17:04:20 17:09:00 55° 42° (NE) 17:13:30 436.795
KKS-1 25 Jul 17:04:26 17:08:39 38° 98° (E) 17:12:50 437.445
ITAMSAT 1 25 Jul 17:05:57 17:09:03 16° 273° (W) 17:12:09 435.822/435.867
NOAA 18 25 Jul 17:10:45 17:14:42 20° 53° (NE) 17:18:39 137.9125
NOAA 15 25 Jul 17:16:10 17:20:20 24° 58° (ENE) 17:24:29 137.62
BRITE-PL 25 Jul 17:17:45 17:20:47 20° 61° (ENE) 17:23:50 437.365/2234.400
MOZHAYETS 4 25 Jul 17:25:15 17:29:50 64° 102° (ESE) 17:34:21
DANDE 25 Jul 17:26:26 17:27:25 12° 270° (W) 17:28:25 436.750
HORYU 2 25 Jul 17:31:13 17:35:43 85° 256° (WSW) 17:40:16 437.375
AO-85 25 Jul 17:33:17 17:37:55 31° 328° (NNW) 17:42:18 145.980
HO-68 25 Jul 17:39:03 17:42:01 13° 35° (NE) 17:44:59 435.675
SWISSCUBE 25 Jul 17:45:10 17:48:24 18° 304° (WNW) 17:51:36 437.505
STARS 25 Jul 17:48:06 17:52:28 52° 101° (E) 17:56:49 437.465
RS-15 25 Jul 17:50:27 18:02:07 52° 246° (WSW) 18:13:42 29.354- 29.394
AO-7 25 Jul 17:52:57 17:59:33 25° 270° (W) 18:06:13 29.400- 29.500
Cubesat XI-IV 25 Jul 18:04:21 18:09:23 42° 65° (ENE) 18:14:28 437.490
BEESAT 25 Jul 18:07:22 18:09:47 14° 308° (NW) 18:12:12 436.000
Cosmos 2499 25 Jul 18:19:30 18:27:57 46° 292° (WNW) 18:36:09 435.465 / 435.565
GONETS M04 25 Jul 18:22:02 18:29:53 36° 297° (WNW) 18:37:49
GOMX 1 25 Jul 18:28:03 18:32:00 42° 68° (ENE) 18:36:08 467.674
CUTE-I 25 Jul 18:28:16 18:33:34 64° 70° (ENE) 18:38:55 437.470
DOVE 4 25 Jul 18:30:36 18:34:07 24° 61° (ENE) 18:37:48 437.250
YUBILEINY 25 Jul 18:30:43 18:31:08 10° 32° (NNE) 18:31:33 435.215
LilacSat-2 25 Jul 18:30:54 18:34:42 56° 72° (ENE) 18:38:33 437.200
CUBESAT XI-V 25 Jul 18:39:41 18:44:11 49° 99° (E) 18:48:39 437.345
KKS-1 25 Jul 18:41:12 18:45:08 30° 296° (WNW) 18:49:03 437.445
SO-50 25 Jul 18:45:16 18:49:13 28° 243° (WSW) 18:53:05 436.795
NOAA 18 25 Jul 18:49:09 18:54:42 88° 253° (WSW) 19:00:19 137.9125
NOAA 15 25 Jul 18:54:31 18:59:43 64° 257° (WSW) 19:04:58 137.62
BRITE-PL 25 Jul 18:54:57 18:59:00 51° 261° (W) 19:03:06 437.365/2234.400
CINEMA 3 25 Jul 18:55:59 18:58:52 17° 56° (NE) 19:01:51 145.822/145.860
BEESAT 3 25 Jul 19:01:56 19:03:16 11° 111° (ESE) 19:04:37 437.485
MOZHAYETS 4 25 Jul 19:03:15 19:06:35 20° 301° (WNW) 19:09:54
CANX-2 25 Jul 19:07:14 19:09:58 17° 59° (ENE) 19:12:43 2200.000
HORYU 2 25 Jul 19:11:23 19:13:00 12° 274° (W) 19:14:37 437.375
AO-85 25 Jul 19:16:41 19:19:50 16° 351° (N) 19:22:51 145.980
CUTE 1.7 + AOD 2 25 Jul 19:20:37 19:23:40 19° 61° (ENE) 19:26:44 437.475
HO-68 25 Jul 19:21:19 19:27:55 41° 58° (ENE) 19:34:34 435.675
STARS 25 Jul 19:25:03 19:28:32 23° 299° (WNW) 19:32:01 437.465
STRAND 1 25 Jul 19:27:53 19:30:11 13° 85° (E) 19:32:29 437.568
Cubesat XI-IV 25 Jul 19:44:39 19:49:34 35° 264° (W) 19:54:30 437.490
PCSat 25 Jul 19:56:18 20:00:27 23° 109° (ESE) 20:04:36 145.827
UWE-3 25 Jul 19:56:35 19:59:14 15° 55° (NE) 20:01:53 435.000/436.395/437.385
SEEDS 25 Jul 20:02:04 20:05:52 33° 66° (ENE) 20:09:40 437.485
ZACube-1 25 Jul 20:02:08 20:03:52 12° 53° (NE) 20:05:36 437.345
FUNcube-1 25 Jul 20:02:28 20:03:56 11° 52° (NE) 20:05:24 145.935
RS-15 25 Jul 20:06:37 20:11:23 13° 270° (W) 20:16:08 29.354- 29.394
GOMX 1 25 Jul 20:06:57 20:10:21 23° 268° (W) 20:13:52 467.674
LilacSat-2 25 Jul 20:06:57 20:09:22 16° 270° (W) 20:11:48 437.200
DOVE 4 25 Jul 20:07:26 20:11:35 47° 262° (W) 20:16:00 437.250
CUTE-I 25 Jul 20:09:52 20:14:05 23° 269° (W) 20:18:19 437.470
CUBEBUG 2 25 Jul 20:13:29 20:17:22 27° 62° (ENE) 20:21:20 437.445
COMPASS 1 25 Jul 20:17:04 20:20:51 33° 67° (ENE) 20:24:37 437.405
CUBESAT XI-V 25 Jul 20:17:35 20:21:19 25° 298° (WNW) 20:25:02 437.345
PHONESAT 2.4 25 Jul 20:17:43 20:18:54 12° 173° (S) 20:20:04 2401.200-2431.200
Cosmos 2499 25 Jul 20:19:40 20:23:44 14° 318° (NW) 20:27:44 435.465 / 435.565
YUBILEINY 25 Jul 20:23:46 20:31:39 34° 61° (ENE) 20:39:28 435.215
GONETS M04 25 Jul 20:28:31 20:30:13 11° 326° (NNW) 20:31:56
CINEMA 3 25 Jul 20:30:48 20:35:20 85° 255° (WSW) 20:40:09 145.822/145.860
NOAA 18 25 Jul 20:32:51 20:36:10 16° 273° (W) 20:39:31 137.9125
BEESAT 3 25 Jul 20:36:20 20:40:16 82° 129° (SE) 20:44:15 437.485
BEESAT 2 25 Jul 20:39:08 20:42:59 52° 124° (SE) 20:46:53 435.950
NOAA 15 25 Jul 20:39:52 20:40:34 10° 277° (W) 20:41:15 137.62
CANX-2 25 Jul 20:41:04 20:45:21 71° 257° (WSW) 20:49:39 2200.000
Oscar 11 25 Jul 20:44:49 20:48:23 25° 63° (ENE) 20:51:56 145.826/435.025
AAUSAT CUBESAT 2 25 Jul 20:46:46 20:50:48 52° 71° (ENE) 20:54:51 437.432
M-CUBED/EXP-1 PRIME 25 Jul 20:52:19 20:55:14 20° 52° (NE) 20:58:19 437.505
CUTE 1.7 + AOD 2 25 Jul 20:54:55 20:59:09 58° 259° (W) 21:03:24 437.475
AO-85 25 Jul 20:58:41 21:02:03 19° 16° (NNE) 21:05:16 145.980
STRAND 1 25 Jul 21:05:04 21:10:14 80° 105° (ESE) 21:15:20 437.568
O/OREOS (USA 219) 25 Jul 21:08:13 21:11:27 20° 102° (ESE) 21:14:40 437.305
HO-68 25 Jul 21:08:31 21:15:30 53° 259° (W) 21:22:34 435.675
Cosmos 2504 25 Jul 21:15:10 21:21:50 25° 55° (NE) 21:28:07 435.465 / 435.565
AUBIESAT-1 25 Jul 21:19:15 21:22:39 29° 57° (ENE) 21:26:17 437.475
DELFI C3 25 Jul 21:24:10 21:27:29 26° 65° (ENE) 21:30:48 145.870
HUMSAT D 25 Jul 21:29:41 21:32:38 18° 59° (ENE) 21:35:35 437.325/437.525
UWE-3 25 Jul 21:30:24 21:34:59 88° 79° (ENE) 21:39:42 435.000/436.395/437.385
ZACube-1 25 Jul 21:34:47 21:39:18 68° 73° (ENE) 21:43:54 437.345
FUNcube-1 25 Jul 21:34:48 21:39:18 64° 72° (ENE) 21:43:52 145.935
SEEDS 25 Jul 21:37:49 21:41:34 30° 265° (W) 21:45:21 437.485
PCSat 25 Jul 21:37:54 21:43:19 74° 309° (NW) 21:48:48 145.827
CUBEBUG 2 25 Jul 21:49:20 21:53:46 47° 262° (W) 21:58:21 437.445
COMPASS 1 25 Jul 21:52:45 21:56:25 29° 265° (W) 22:00:07 437.405
Cosmos 2491 25 Jul 21:52:51 22:00:42 40° 85° (E) 22:08:35 435.465 / 435.565
PHONESAT 2.4 25 Jul 21:53:42 21:54:36 11° 190° (S) 21:55:29 2401.200-2431.200
CINEMA 3 25 Jul 22:11:28 22:13:19 12° 276° (W) 22:15:13 145.822/145.860
BEESAT 3 25 Jul 22:15:19 22:18:26 22° 331° (NNW) 22:21:36 437.485
BEESAT 2 25 Jul 22:17:32 22:21:02 29° 325° (NW) 22:24:35 435.950
PRISM 25 Jul 22:18:52 22:22:57 68° 103° (ESE) 22:27:02 437.425
Oscar 11 25 Jul 22:20:09 22:24:19 44° 261° (W) 22:28:31 145.826/435.025
YUBILEINY 25 Jul 22:20:28 22:29:17 72° 266° (W) 22:38:01 435.215
AAUSAT CUBESAT 2 25 Jul 22:23:36 22:26:36 19° 269° (W) 22:29:36 437.432
M-CUBED/EXP-1 PRIME 25 Jul 22:25:37 22:29:22 56° 254° (WSW) 22:33:29 437.505
AIST 2 25 Jul 22:26:14 22:30:02 37° 121° (ESE) 22:33:52 435.215
AO-85 25 Jul 22:39:06 22:43:38 49° 40° (NE) 22:47:46 145.980
TIGRISAT 25 Jul 22:41:41 22:44:14 14° 86° (E) 22:46:44 435.000
STRAND 1 25 Jul 22:45:14 22:48:50 20° 305° (NW) 22:52:27 437.568
O/OREOS (USA 219) 25 Jul 22:46:01 22:50:26 59° 302° (WNW) 22:54:53 437.305
AISAT 25 Jul 22:48:40 22:51:21 16° 56° (ENE) 22:54:01 437.250
AUBIESAT-1 25 Jul 22:53:26 22:57:01 36° 258° (WSW) 23:00:53 437.475
DX 1 25 Jul 22:54:36 22:56:45 14° 55° (NE) 22:58:53 434.975-435.025
UNISAT 6 25 Jul 22:56:49 23:00:20 21° 90° (E) 23:03:47 437.425
DELFI C3 25 Jul 22:58:33 23:02:14 35° 263° (W) 23:05:55 145.870
HO-68 25 Jul 23:03:31 23:04:58 11° 281° (W) 23:06:27 435.675
HUMSAT D 25 Jul 23:03:32 23:07:49 65° 258° (WSW) 23:12:08 437.325/437.525
Cosmos 2504 25 Jul 23:08:09 23:16:36 88° 79° (E) 23:24:23 435.465 / 435.565
UWE-3 25 Jul 23:09:49 23:12:08 14° 274° (W) 23:14:29 435.000/436.395/437.385
UKube-1 25 Jul 23:10:49 23:13:20 15° 56° (NE) 23:15:51 .
FUNcube-1 25 Jul 23:12:51 23:15:59 18° 271° (W) 23:19:10 145.935
50 SAT 25 Jul 23:12:54 23:15:36 20° 63° (ENE) 23:18:18 437.505
ZACube-1 25 Jul 23:13:03 23:16:04 17° 272° (W) 23:19:08 437.345
ESTCUBE 1 25 Jul 23:15:17 23:19:26 38° 66° (ENE) 23:23:35 437.505/2401.250
PCSat 25 Jul 23:23:18 23:27:38 23° 332° (NNW) 23:31:59 145.827
ISS 25 Jul 23:31:20 23:34:17 32° 150° (SSE) 23:37:14 145.825
ANTELSAT 25 Jul 23:34:46 23:39:16 44° 98° (E) 23:43:39 437.575/2403.000
VELOX 1 25 Jul 23:38:35 23:42:39 38° 67° (ENE) 23:46:45 145.980
QB50P2 25 Jul 23:42:25 23:42:38 10° 85° (E) 23:42:51 145.880/145.840
CUBEBUG 1 25 Jul 23:43:46 23:47:55 47° 69° (ENE) 23:52:05 437.445
POLYITAN 1 25 Jul 23:44:40 23:45:18 10° 85° (E) 23:45:56 437.675
SPROUT 25 Jul 23:46:03 23:49:28 24° 62° (ENE) 23:52:55 437.525
Cosmos 2491 25 Jul 23:48:44 23:57:17 58° 288° (WNW) 00:05:54 435.465 / 435.565
PRISM 25 Jul 23:55:15 23:57:49 16° 302° (WNW) 00:00:23 437.425
BEESAT 3 25 Jul 23:56:10 23:57:31 11° 354° (N) 23:58:52 437.485
BEESAT 2 25 Jul 23:58:18 00:00:06 13° 348° (NNW) 00:01:54 435.950
AIST 2 26 Jul 00:04:40 00:08:32 38° 321° (NW) 00:12:26 435.215
TIGRISAT 26 Jul 00:16:51 00:21:34 83° 286° (WNW) 00:26:10 435.000
YUBILEINY 26 Jul 00:19:03 00:24:27 18° 289° (WNW) 00:29:51 435.215
AO-85 26 Jul 00:20:00 00:23:53 29° 243° (WSW) 00:27:28 145.980
AISAT 26 Jul 00:22:52 00:27:16 80° 257° (WSW) 00:31:42 437.250
NANOSAT C BR1 26 Jul 00:26:54 00:30:28 25° 93° (E) 00:34:00 145.865
DX 1 26 Jul 00:27:57 00:32:17 85° 71° (ENE) 00:36:39 434.975-435.025
O/OREOS (USA 219) 26 Jul 00:28:38 00:30:50 13° 324° (NW) 00:33:02 437.305
DUCHIFAT 1 26 Jul 00:31:53 00:35:31 26° 94° (E) 00:39:07 145.980
GONETS M04 26 Jul 00:32:22 00:36:08 13° 39° (NE) 00:39:53
UNISAT 6 26 Jul 00:32:49 00:37:26 58° 290° (WNW) 00:41:56 437.425
UKube-1 26 Jul 00:44:31 00:48:49 82° 257° (WSW) 00:53:10 .
50 SAT 26 Jul 00:45:30 00:49:00 42° 261° (W) 00:52:30 437.505
TISAT 1 26 Jul 00:46:53 00:50:22 26° 63° (ENE) 00:53:52 437.305
QB50P1 26 Jul 00:48:06 00:52:12 41° 98° (E) 00:56:15 145.935-145.965
ESTCUBE 1 26 Jul 00:52:22 00:56:18 30° 265° (W) 01:00:16 437.505/2401.250
BUGSAT 1 26 Jul 00:52:56 00:56:11 21° 92° (E) 00:59:25 437.445
POPSAT HIP 1 26 Jul 00:54:22 00:58:32 46° 99° (E) 01:02:40 437.405
Cosmos 2504 26 Jul 01:02:44 01:08:49 23° 284° (WNW) 01:14:37 435.465 / 435.565
AIST 1 26 Jul 01:06:15 01:10:32 57° 76° (ENE) 01:14:50
ISS 26 Jul 01:07:15 01:10:31 89° 342° (NNW) 01:13:48 145.825
PCSat 26 Jul 01:10:05 01:13:03 15° 358° (N) 01:16:01 145.827
ANTELSAT 26 Jul 01:11:48 01:15:48 28° 297° (WNW) 01:19:43 437.575/2403.000
QB50P2 26 Jul 01:14:51 01:19:11 79° 104° (ESE) 01:23:29 145.880/145.840
VELOX 1 26 Jul 01:15:27 01:19:13 28° 265° (W) 01:23:02 145.980
POLYITAN 1 26 Jul 01:17:30 01:21:51 80° 104° (ESE) 01:26:09 437.675
CUBEBUG 1 26 Jul 01:21:03 01:24:26 22° 268° (W) 01:27:52 437.445
SPROUT 26 Jul 01:21:04 01:25:11 46° 261° (W) 01:29:21 437.525
JAS-2 26 Jul 01:27:42 01:32:27 34° 96° (E) 01:37:26 435.910
BEESAT 3 26 Jul 01:34:34 01:36:49 14° 18° (NNE) 01:39:03 437.485
BEESAT 2 26 Jul 01:37:44 01:39:35 13° 13° (NNE) 01:41:28 435.950
SWISSCUBE 26 Jul 01:41:03 01:44:56 25° 60° (ENE) 01:48:50 437.505
AIST 2 26 Jul 01:45:45 01:48:07 15° 344° (NNW) 01:50:30 435.215
Cosmos 2491 26 Jul 01:51:15 01:56:29 17° 314° (NW) 02:01:46 435.465 / 435.565
TIGRISAT 26 Jul 01:54:59 01:57:31 15° 306° (NW) 02:00:03 435.000
Oscar 19 26 Jul 02:00:44 02:04:37 21° 90° (E) 02:08:28 437.125/150
BEESAT 26 Jul 02:02:06 02:06:22 34° 64° (ENE) 02:10:40 436.000
NANOSAT C BR1 26 Jul 02:02:18 02:06:21 41° 292° (WNW) 02:10:22 145.865
AISAT 26 Jul 02:03:35 02:04:30 11° 275° (W) 02:05:25 437.250
DX 1 26 Jul 02:07:12 02:09:06 13° 273° (W) 02:11:00 434.975-435.025
DUCHIFAT 1 26 Jul 02:07:20 02:11:20 39° 293° (WNW) 02:15:18 145.980
Cosmos 2499 26 Jul 02:11:54 02:18:33 27° 57° (ENE) 02:24:46 435.465 / 435.565
UNISAT 6 26 Jul 02:12:08 02:13:10 11° 310° (NW) 02:14:11 437.425
TISAT 1 26 Jul 02:21:52 02:25:51 41° 262° (W) 02:29:53 437.305
ITUPSAT 1 26 Jul 02:23:50 02:28:28 49° 68° (ENE) 02:33:06 437.325
QB50P1 26 Jul 02:24:13 02:27:48 26° 297° (WNW) 02:31:23 145.935-145.965
UKube-1 26 Jul 02:24:41 02:25:35 11° 274° (W) 02:26:29 .
GONETS M04 26 Jul 02:27:37 02:35:58 44° 67° (ENE) 02:44:17
BUGSAT 1 26 Jul 02:27:42 02:31:49 49° 290° (WNW) 02:35:56 437.445
POPSAT HIP 1 26 Jul 02:30:38 02:34:05 24° 298° (WNW) 02:37:31 437.405
KKS-1 26 Jul 02:34:28 02:35:43 11° 52° (NE) 02:36:58 437.445
ISS 26 Jul 02:43:46 02:47:02 84° 9° (N) 02:50:19 145.825
AIST 1 26 Jul 02:44:51 02:47:43 17° 275° (W) 02:50:34
QB50P2 26 Jul 02:51:53 02:54:27 16° 303° (WNW) 02:57:01 145.880/145.840
PCSat 26 Jul 02:54:30 02:58:34 21° 24° (NNE) 03:02:36 145.827
POLYITAN 1 26 Jul 02:54:32 02:57:05 16° 303° (WNW) 02:59:37 437.675
MOZHAYETS 4 26 Jul 02:56:41 02:59:44 18° 57° (ENE) 03:02:47
Gurwin Techsat 1B 26 Jul 03:09:07 03:14:03 37° 96° (E) 03:18:58 435.225
BEESAT 3 26 Jul 03:11:41 03:15:29 41° 41° (NE) 03:19:16 437.485
JAS-2 26 Jul 03:12:51 03:17:42 41° 295° (WNW) 03:22:47 435.910
BEESAT 2 26 Jul 03:15:02 03:18:38 30° 36° (NE) 03:22:12 435.950
STARS 26 Jul 03:15:43 03:18:01 14° 54° (NE) 03:20:18 437.465
SWISSCUBE 26 Jul 03:17:47 03:22:28 53° 259° (W) 03:27:10 437.505
AIST 2 26 Jul 03:26:20 03:28:16 13° 9° (N) 03:30:13 435.215
ITAMSAT 1 26 Jul 03:32:00 03:35:58 22° 91° (E) 03:39:54 435.822/435.867
Oscar 19 26 Jul 03:39:17 03:44:25 67° 290° (WNW) 03:49:33 437.125/150
BEESAT 26 Jul 03:39:40 03:44:08 38° 263° (W) 03:48:36 436.000
AO-7 26 Jul 03:54:13 04:00:17 21° 87° (E) 04:06:18 29.400- 29.500
ITUPSAT 1 26 Jul 04:02:33 04:06:33 25° 267° (W) 04:10:33 437.325
Cosmos 2499 26 Jul 04:04:42 04:12:49 83° 262° (W) 04:20:15 435.465 / 435.565
KKS-1 26 Jul 04:07:02 04:11:26 64° 71° (ENE) 04:15:52 437.445
CUBESAT XI-V 26 Jul 04:13:06 04:15:34 14° 55° (NE) 04:18:01 437.345
ISS 26 Jul 04:20:17 04:23:20 37° 208° (SSW) 04:26:22 145.825
GONETS M04 26 Jul 04:24:36 04:33:03 54° 270° (W) 04:41:32
MOZHAYETS 4 26 Jul 04:31:44 04:36:23 77° 257° (WSW) 04:41:02
PCSat 26 Jul 04:37:42 04:43:06 59° 48° (NE) 04:48:27 145.827
CUSAT 1 26 Jul 04:45:53 04:49:46 55° 100° (E) 04:52:51 437.405
Gurwin Techsat 1B 26 Jul 04:49:07 04:54:03 40° 296° (WNW) 04:58:58 435.225
STARS 26 Jul 04:49:18 04:53:42 86° 77° (ENE) 04:58:10 437.465
BEESAT 3 26 Jul 04:49:34 04:53:05 30° 240° (WSW) 04:56:34 437.485
BEESAT 2 26 Jul 04:52:46 04:56:38 48° 236° (SW) 05:00:29 435.950
DANDE 26 Jul 04:55:26 05:00:12 33° 97° (E) 05:03:55 436.750
AIST 2 26 Jul 05:04:32 05:08:07 26° 32° (NNE) 05:11:40 435.215
ITAMSAT 1 26 Jul 05:10:44 05:15:55 65° 290° (WNW) 05:21:02 435.822/435.867
HORYU 2 26 Jul 05:18:42 05:20:51 13° 87° (E) 05:22:58 437.375
Oscar 19 26 Jul 05:20:20 05:22:51 14° 310° (NW) 05:25:22 437.125/150
O/OREOS (USA 219) 26 Jul 05:33:00 05:36:09 18° 42° (NE) 05:39:18 437.305
KKS-1 26 Jul 05:45:28 05:48:27 17° 270° (W) 05:51:27 437.445
AO-7 26 Jul 05:45:55 05:54:21 82° 109° (ESE) 06:02:43 29.400- 29.500
CUBESAT XI-V 26 Jul 05:47:38 05:52:15 84° 77° (ENE) 05:56:54 437.345
Cosmos 2499 26 Jul 05:59:20 06:04:34 20° 286° (WNW) 06:09:35 435.465 / 435.565
RS-15 26 Jul 06:12:14 06:19:35 20° 95° (E) 06:27:07 29.354- 29.394
MOZHAYETS 4 26 Jul 06:13:06 06:14:21 11° 276° (W) 06:15:35
Cubesat XI-IV 26 Jul 06:19:06 06:20:10 11° 83° (E) 06:21:12 437.490
PCSat 26 Jul 06:21:32 06:26:12 30° 248° (WSW) 06:30:50 145.827
GONETS M04 26 Jul 06:24:33 06:27:44 12° 294° (WNW) 06:30:57
GOMX 1 26 Jul 06:26:24 06:27:15 10° 84° (E) 06:28:07 467.674
STARS 26 Jul 06:28:42 06:30:42 13° 273° (W) 06:32:43 437.465
CUSAT 1 26 Jul 06:30:50 06:31:54 11° 294° (WNW) 06:32:54 437.405
DANDE 26 Jul 06:38:21 06:42:57 31° 288° (WNW) 06:46:34 436.750
CUTE-I 26 Jul 06:41:14 06:44:41 17° 88° (E) 06:48:06 437.470
AIST 2 26 Jul 06:42:48 06:46:57 67° 233° (SW) 06:51:06 435.215
STRAND 1 26 Jul 06:47:40 06:52:12 32° 62° (ENE) 06:56:46 437.568
ITAMSAT 1 26 Jul 06:51:57 06:54:27 14° 310° (NW) 06:56:57 435.822/435.867
BRITE-PL 26 Jul 06:53:16 06:57:32 33° 96° (E) 07:02:04 437.365/2234.400
HORYU 2 26 Jul 06:53:32 06:58:04 86° 284° (WNW) 07:02:32 437.375
NOAA 15 26 Jul 07:04:34 07:09:17 32° 95° (E) 07:14:00 137.62
NOAA 18 26 Jul 07:06:29 07:11:08 27° 93° (E) 07:15:46 137.9125
O/OREOS (USA 219) 26 Jul 07:11:39 07:16:13 89° 252° (WSW) 07:20:46 437.305
CUBESAT XI-V 26 Jul 07:27:54 07:30:17 14° 273° (W) 07:32:41 437.345
LilacSat-2 26 Jul 07:33:32 07:37:16 42° 98° (E) 07:40:56 437.200
AO-7 26 Jul 07:39:18 07:46:25 33° 312° (NW) 07:53:31 29.400- 29.500
PRISM 26 Jul 07:40:07 07:42:11 14° 56° (NE) 07:44:16 437.425
Cosmos 2491 26 Jul 07:55:54 08:03:11 28° 57° (ENE) 08:10:26 435.465 / 435.565
Cubesat XI-IV 26 Jul 07:55:57 08:01:20 64° 103° (ESE) 08:06:37 437.490
DOVE 4 26 Jul 08:00:16 08:04:55 35° 95° (E) 08:09:43 437.250
GOMX 1 26 Jul 08:01:15 08:06:10 66° 101° (ESE) 08:11:23 467.674
RS-15 26 Jul 08:18:08 08:29:30 67° 120° (ESE) 08:41:30 29.354- 29.394
CUTE-I 26 Jul 08:20:02 08:25:26 84° 287° (WNW) 08:30:46 437.470
CINEMA 3 26 Jul 08:20:57 08:24:35 20° 89° (E) 08:28:11 145.822/145.860
CANX-2 26 Jul 08:22:18 08:24:42 15° 88° (E) 08:27:04 2200.000
STRAND 1 26 Jul 08:26:21 08:31:16 44° 261° (W) 08:36:13 437.568
HO-68 26 Jul 08:30:51 08:36:38 25° 90° (E) 08:42:22 435.675
HORYU 2 26 Jul 08:31:33 08:33:57 14° 305° (NW) 08:36:20 437.375
BRITE-PL 26 Jul 08:31:47 08:36:04 38° 293° (WNW) 08:40:40 437.365/2234.400
CUTE 1.7 + AOD 2 26 Jul 08:35:36 08:38:27 17° 89° (E) 08:41:17 437.475
NOAA 15 26 Jul 08:44:14 08:49:13 44° 295° (WNW) 08:54:11 137.62
NOAA 18 26 Jul 08:46:42 08:52:11 58° 292° (WNW) 08:57:35 137.9125
O/OREOS (USA 219) 26 Jul 08:52:55 08:54:55 13° 262° (W) 08:56:54 437.305
SO-50 26 Jul 09:03:27 09:07:40 30° 118° (ESE) 09:11:52 436.795
ANTELSAT 26 Jul 09:04:43 09:06:41 13° 53° (NE) 09:08:40 437.575/2403.000
LilacSat-2 26 Jul 09:08:21 09:11:21 22° 297° (WNW) 09:14:19 437.200
PRISM 26 Jul 09:12:51 09:16:56 84° 256° (WSW) 09:21:02 437.425
SEEDS 26 Jul 09:16:13 09:19:58 31° 95° (E) 09:23:39 437.485
UWE-3 26 Jul 09:16:33 09:19:01 14° 86° (E) 09:21:26 435.000/436.395/437.385
